Terug naar catalogus

STARLINK-33820

ActiefCommunicatieVLEO
NORAD 63584·PAYLOAD·🇺🇸 United States

Gelanceerd Apr 14, 2025 vanaf Cape Canaveral Space Force Station

Loading…

Volgende Passages (komende 24 uur)

TLE

VersSource: CelesTrak SupGP

Epoch: Sep 15, 2026, 02:05 UTC

1 63584C 25076R   26258.08729167  .00040229  00000+0  14574-2 0  2586
2 63584  43.0017 331.6294 0001459 267.9853  13.0286 15.27551499    19

Volg STARLINK-33820 in realtime met AllMySat

Download on the App Store